AKDT,Max TemperatureF,Mean TemperatureF,Min TemperatureF,Max Dew PointF,MeanDew PointF,Min DewpointF,Max Humidity, Mean Humidity, Min Humidity, Max Sea Level PressureIn, Mean Sea Level PressureIn, Min Sea Level PressureIn, Max VisibilityMiles, Mean VisibilityMiles, Min VisibilityMiles, Max Wind SpeedMPH, Mean Wind SpeedMPH, Max Gust SpeedMPH,PrecipitationIn, CloudCover, Events, WindDirDegrees
2013-10-1,37,34,31,32,31,30,100,92,79,29.94,29.91,29.86,10,7,2,4,1,,0.00,8,Snow,94
2013-10-2,45,37,30,36,33,29,95,86,61,29.94,29.90,29.83,10,10,10,8,1,,0.00,6,,16
2013-10-3,51,38,26,39,31,25,96,85,52,29.86,29.75,29.61,10,10,2,6,1,,0.00,4,,358
2013-10-4,37,32,28,32,31,27,96,89,80,29.86,29.75,29.60,10,10,10,6,2,,0.00,7,,40
2013-10-5,45,36,28,32,30,27,95,83,60,29.86,29.78,29.68,10,10,10,12,3,,0.00,4,,111
2013-10-6,41,35,29,32,30,28,100,89,68,29.74,29.68,29.63,10,9,2,8,2,,0.08,7,Snow,188
2013-10-7,38,32,26,35,31,25,100,95,81,29.87,29.79,29.71,10,5,0,6,2,,0.00,6,Fog-Snow,130
2013-10-8,48,37,26,37,31,25,96,64,49,29.69,29.22,28.96,10,10,6,26,11,37,0.02,6,Rain,129
2013-10-9,38,36,34,37,34,29,100,90,77,29.72,29.36,29.00,10,8,3,17,8,29,0.14,8,Rain-Snow,264
2013-10-10,41,32,24,29,27,22,93,81,59,29.74,29.69,29.64,10,10,10,8,4,,0.00,3,,132
2013-10-11,44,34,26,31,28,25,96,86,59,29.85,29.78,29.68,10,10,10,5,2,,0.00,3,,16
2013-10-12,54,38,23,34,29,22,94,70,42,29.81,29.74,29.67,10,10,10,20,4,24,0.00,2,,127
2013-10-13,50,44,39,37,30,27,93,55,42,29.65,29.52,29.39,10,10,10,20,13,30,0.05,2,Rain,148
2013-10-14,46,38,31,37,33,30,100,89,65,29.93,29.76,29.62,10,9,2,10,4,21,0.00,4,Rain,190
2013-10-15,50,41,32,38,34,31,95,77,53,29.94,29.89,29.83,10,10,10,14,3,,0.00,3,Rain,355
2013-10-16,57,47,37,40,37,34,87,70,43,30.08,30.02,29.92,10,10,10,10,3,,0.00,4,,189
2013-10-17,50,44,37,43,38,34,91,82,73,29.96,29.81,29.70,10,10,10,7,3,,0.00,3,Rain,359
2013-10-18,48,40,33,39,34,29,95,83,66,29.70,29.61,29.57,10,10,10,7,3,,0.00,4,,48
2013-10-19,56,42,30,38,31,25,89,58,38,29.57,29.42,29.29,10,10,10,24,10,34,0.01,4,Rain,132
2013-10-20,50,40,29,33,30,24,93,73,47,29.89,29.75,29.58,10,10,10,6,3,,0.00,5,,20
2013-10-21,39,29,21,28,24,19,94,85,65,30.11,30.01,29.90,10,10,10,4,0,,0.00,1,,32
2013-10-22,36,26,17,27,20,14,91,85,66,30.20,30.16,30.10,10,10,10,5,1,,0.00,2,,88
2013-10-23,32,26,21,26,23,19,93,86,74,30.16,29.98,29.87,10,10,10,5,1,,0.00,7,,247
2013-10-24,39,27,17,24,21,15,93,82,53,29.99,29.86,29.68,10,10,10,9,4,,0.00,5,,72
2013-10-25,42,30,18,26,22,15,87,74,52,30.18,29.91,29.72,10,10,10,8,3,,0.00,4,,184
2013-10-26,32,22,11,24,16,8,91,86,72,30.51,30.41,30.20,10,10,10,5,1,,0.00,0,,2
2013-10-27,46,34,21,36,27,19,91,64,38,30.31,29.93,29.64,10,10,10,14,6,,0.04,3,Rain,80
2013-10-28,58,44,35,38,35,32,96,80,51,29.60,29.25,29.03,10,10,10,20,7,,0.02,4,Rain,180
2013-10-29,37,32,26,36,33,25,100,93,87,29.54,29.43,29.28,10,9,2,10,6,,0.20,6,Rain-Snow,195
2013-10-30,38,29,21,35,25,20,100,94,89,29.47,29.26,29.16,10,6,0,5,1,,0.07,2,Fog,21
2013-10-31,27,24,22,27,24,21,100,95,93,29.70,29.44,29.25,10,5,0,0,0,,0.00,8,Fog-Snow,-1